• In Belarus
  • List of Countries
  • For 7 days
  • Water Temperature
  • Satellite Maps
  • Weather Map
  • Weather Widgets
  • user-avatar
    Login

    Hourly Weather Pozarow

    Today, 22 February, Friday

    Time Temperature Precipitation Wind Pressure Humidity
    00:00 +7°C° 1 mm 4 mps 757 mmHg 92%
    01:00 +8°C° 0 mm 3 mps 757 mmHg 92%
    02:00 +6°C° 0.4 mm 4 mps 758 mmHg 92%
    03:00 +6°C° 0.4 mm 4 mps 758 mmHg 91%
    04:00 +6°C° 0.4 mm 5 mps 758 mmHg 91%
    05:00 +5°C° 0.1 mm 5 mps 760 mmHg 88%
    06:00 +3°C° 0.1 mm 5 mps 761 mmHg 85%
    07:00 +1°C° 0.1 mm 5 mps 762 mmHg 82%
    08:00 +1°C° 0 mm 5 mps 763 mmHg 77%
    09:00 0°C° 0 mm 5 mps 765 mmHg 73%
    10:00 0°C° 0 mm 5 mps 766 mmHg 69%
    11:00 0°C° 0 mm 5 mps 767 mmHg 62%
    12:00 0°C° 0 mm 4 mps 767 mmHg 56%
    13:00 +1°C° 0 mm 4 mps 768 mmHg 50%
    14:00 +1°C° 0 mm 4 mps 768 mmHg 48%
    15:00 0°C° 0 mm 4 mps 769 mmHg 47%
    16:00 +1°C° 0 mm 3 mps 769 mmHg 45%
    17:00 0°C° 0 mm 3 mps 770 mmHg 50%
    18:00 -1°C° 0 mm 2 mps 771 mmHg 55%
    19:00 -2°C° 0 mm 2 mps 771 mmHg 59%
    20:00 -2°C° 0 mm 2 mps 772 mmHg 59%
    21:00 -2°C° 0 mm 2 mps 772 mmHg 58%
    22:00 -3°C° 0 mm 2 mps 773 mmHg 58%
    23:00 -3°C° 0 mm 2 mps 773 mmHg 57%

    Tomorrow, 23 February, Saturday

    Time Temperature Precipitation Wind Pressure Humidity
    00:00 -3°C° 0 mm 2 mps 773 mmHg 55%
    01:00 -3°C° 0 mm 2 mps 773 mmHg 54%
    02:00 -3°C° 0 mm 2 mps 773 mmHg 53%
    03:00 -3°C° 0 mm 2 mps 773 mmHg 53%
    04:00 -3°C° 0 mm 2 mps 773 mmHg 52%
    05:00 -3°C° 0 mm 2 mps 773 mmHg 52%
    06:00 -3°C° 0 mm 2 mps 773 mmHg 51%
    07:00 -4°C° 0 mm 2 mps 773 mmHg 50%
    08:00 -3°C° 0 mm 2 mps 773 mmHg 44%
    09:00 -2°C° 0 mm 2 mps 773 mmHg 38%
    10:00 -1°C° 0 mm 3 mps 773 mmHg 31%
    11:00 +2°C° 0 mm 2 mps 773 mmHg 28%
    12:00 +3°C° 0 mm 2 mps 773 mmHg 25%
    13:00 +4°C° 0 mm 2 mps 773 mmHg 22%
    14:00 +4°C° 0 mm 2 mps 773 mmHg 23%
    15:00 +4°C° 0 mm 2 mps 772 mmHg 24%
    16:00 +4°C° 0 mm 2 mps 772 mmHg 25%
    17:00 +2°C° 0 mm 2 mps 772 mmHg 29%
    18:00 +1°C° 0 mm 2 mps 771 mmHg 34%
    19:00 -2°C° 0 mm 2 mps 771 mmHg 38%
    20:00 -2°C° 0 mm 2 mps 771 mmHg 38%
    21:00 -2°C° 0 mm 2 mps 771 mmHg 39%
    22:00 -2°C° 0 mm 2 mps 771 mmHg 39%
    23:00 0°C° 0 mm 1 mps 771 mmHg 39%

    Day after tomorrow, 24 February, Sunday

    Time Temperature Precipitation Wind Pressure Humidity
    00:00 0°C° 0 mm 1 mps 771 mmHg 38%
    01:00 +1°C° 0 mm 1 mps 771 mmHg 38%
    02:00 +1°C° 0 mm 1 mps 771 mmHg 38%
    03:00 +1°C° 0 mm 1 mps 771 mmHg 39%
    04:00 +1°C° 0 mm 1 mps 770 mmHg 39%
    05:00 +1°C° 0 mm 1 mps 770 mmHg 39%
    06:00 0°C° 0 mm 1 mps 770 mmHg 39%
    07:00 0°C° 0 mm 1 mps 770 mmHg 39%
    08:00 +2°C° 0 mm 1 mps 770 mmHg 35%
    09:00 +4°C° 0 mm 1 mps 771 mmHg 31%
    10:00 +6°C° 0 mm 1 mps 771 mmHg 26%
    11:00 +7°C° 0 mm 1 mps 771 mmHg 25%
    12:00 +8°C° 0 mm 1 mps 771 mmHg 24%
    13:00 +9°C° 0 mm 1 mps 770 mmHg 23%
    14:00 +9°C° 0 mm 1 mps 770 mmHg 28%
    15:00 +9°C° 0 mm 1 mps 770 mmHg 33%
    16:00 +8°C° 0 mm 1 mps 770 mmHg 39%
    17:00 +7°C° 0 mm 1 mps 770 mmHg 42%
    18:00 +5°C° 0 mm 1 mps 770 mmHg 45%
    19:00 +4°C° 0 mm 1 mps 770 mmHg 49%
    20:00 +3°C° 0 mm 1 mps 770 mmHg 50%
    21:00 +3°C° 0 mm 1 mps 771 mmHg 51%
    22:00 +3°C° 0 mm 1 mps 771 mmHg 52%
    23:00 +3°C° 0 mm 1 mps 771 mmHg 52%

    25 February, Monday

    Time Temperature Precipitation Wind Pressure Humidity
    00:00 +2°C° 0 mm 1 mps 771 mmHg 53%
    01:00 +2°C° 0 mm 1 mps 771 mmHg 53%
    02:00 +2°C° 0 mm 1 mps 771 mmHg 54%
    03:00 +1°C° 0 mm 2 mps 771 mmHg 55%
    04:00 +1°C° 0 mm 2 mps 771 mmHg 56%
    05:00 +1°C° 0 mm 2 mps 770 mmHg 57%
    06:00 +1°C° 0 mm 2 mps 770 mmHg 58%
    07:00 +1°C° 0 mm 2 mps 770 mmHg 59%
    08:00 +2°C° 0 mm 2 mps 771 mmHg 56%
    09:00 +4°C° 0 mm 2 mps 771 mmHg 53%
    10:00 +6°C° 0 mm 2 mps 771 mmHg 50%
    11:00 +7°C° 0 mm 2 mps 771 mmHg 48%
    12:00 +9°C° 0 mm 2 mps 770 mmHg 46%
    13:00 +10°C° 0 mm 2 mps 770 mmHg 44%
    14:00 +10°C° 0 mm 2 mps 770 mmHg 47%
    15:00 +10°C° 0 mm 2 mps 770 mmHg 49%
    16:00 +10°C° 0 mm 2 mps 769 mmHg 52%
    17:00 +9°C° 0 mm 2 mps 769 mmHg 58%
    18:00 +8°C° 0 mm 1 mps 769 mmHg 63%
    19:00 +7°C° 0 mm 1 mps 769 mmHg 69%
    20:00 +6°C° 0 mm 1 mps 769 mmHg 71%
    21:00 +6°C° 0 mm 1 mps 769 mmHg 73%
    22:00 +4°C° 0 mm 2 mps 768 mmHg 75%
    23:00 +4°C° 0 mm 2 mps 768 mmHg 76%

    26 February, Tuesday

    Time Temperature Precipitation Wind Pressure Humidity
    00:00 +4°C° 0 mm 2 mps 768 mmHg 77%
    01:00 +4°C° 0 mm 2 mps 767 mmHg 79%
    02:00 +3°C° 0 mm 2 mps 767 mmHg 80%
    03:00 +2°C° 0 mm 3 mps 767 mmHg 82%
    04:00 +2°C° 0 mm 3 mps 766 mmHg 83%
    05:00 +2°C° 0 mm 3 mps 766 mmHg 84%
    06:00 +2°C° 0 mm 3 mps 766 mmHg 85%
    07:00 +2°C° 0 mm 3 mps 766 mmHg 86%
    08:00 +3°C° 0 mm 3 mps 765 mmHg 78%
    09:00 +5°C° 0 mm 4 mps 765 mmHg 71%
    10:00 +6°C° 0 mm 4 mps 765 mmHg 64%
    11:00 +7°C° 0 mm 4 mps 765 mmHg 61%
    12:00 +9°C° 0 mm 3 mps 765 mmHg 58%
    13:00 +10°C° 0 mm 3 mps 765 mmHg 54%
    14:00 +10°C° 0 mm 3 mps 764 mmHg 57%
    15:00 +10°C° 0 mm 3 mps 764 mmHg 60%
    16:00 +9°C° 0 mm 3 mps 764 mmHg 63%
    17:00 +8°C° 0 mm 2 mps 764 mmHg 70%
    18:00 +7°C° 0 mm 2 mps 765 mmHg 78%
    19:00 +7°C° 0 mm 1 mps 765 mmHg 85%
    20:00 +6°C° 0 mm 1 mps 765 mmHg 87%
    21:00 +6°C° 0 mm 1 mps 765 mmHg 90%
    22:00 +5°C° 0 mm 1 mps 765 mmHg 92%
    23:00 +5°C° 0 mm 1 mps 765 mmHg 92%

    27 February, Wednesday

    Time Temperature Precipitation Wind Pressure Humidity
    00:00 +4°C° 0 mm 1 mps 765 mmHg 92%
    01:00 +4°C° 0 mm 1 mps 765 mmHg 92%
    02:00 +3°C° 0 mm 0 mps 765 mmHg 92%
    03:00 +2°C° 0 mm 0 mps 765 mmHg 91%
    04:00 +2°C° 0 mm 0 mps 765 mmHg 91%
    05:00 +2°C° 0 mm 0 mps 765 mmHg 91%
    06:00 +3°C° 0 mm 1 mps 765 mmHg 91%
    07:00 +2°C° 0 mm 1 mps 764 mmHg 92%
    08:00 +4°C° 0 mm 1 mps 764 mmHg 85%
    09:00 +6°C° 0 mm 1 mps 764 mmHg 78%
    10:00 +8°C° 0 mm 1 mps 764 mmHg 71%
    11:00 +8°C° 0 mm 2 mps 763 mmHg 65%
    12:00 +10°C° 0 mm 2 mps 763 mmHg 59%
    13:00 +12°C° 0 mm 3 mps 762 mmHg 53%
    14:00 +12°C° 0 mm 3 mps 761 mmHg 54%
    15:00 +12°C° 0 mm 3 mps 761 mmHg 55%
    16:00 +12°C° 0 mm 3 mps 760 mmHg 56%
    17:00 +11°C° 0 mm 3 mps 759 mmHg 63%
    18:00 +9°C° 0 mm 3 mps 759 mmHg 71%
    19:00 +8°C° 0 mm 3 mps 758 mmHg 79%
    20:00 +8°C° 0 mm 3 mps 758 mmHg 80%
    21:00 +8°C° 0 mm 3 mps 757 mmHg 81%
    22:00 +8°C° 0 mm 3 mps 757 mmHg 83%
    23:00 +7°C° 0 mm 4 mps 756 mmHg 83%
    Show more